GW0772 Weather Reports


time (UTC)temp
F
wind
direction
speed
knots
gust
knots
rain 1hr
in
rain 24hr
in
rain mn
in
humidity
%
barometer
mb
20260504150703 72 195 2.6 10.4 0.00 0.00 0.00 57 1009.1
20260504150204 72 219 2.6 8.7 0.00 0.00 0.00 57 1009.1
20260504141204 68 243 4.3 8.7 0.00 0.00 0.00 64 1009.8
20260504140704 67 237 3.5 11.3 0.00 0.00 0.00 67 1010.0
20260504140204 67 226 1.7 2.6 0.00 0.00 0.00 69 1010.1
20260504130704 62 168 0.9 2.6 0.00 0.00 0.00 78 1010.2
20260504130204 61 323 0.9 2.6 0.00 0.00 0.00 78 1010.1
20260504120203 57 121 0.0 0.9 0.00 0.00 0.00 83 1009.9
20260504110203 57 135 0.0 0.0 0.00 0.00 0.00 82 1009.5
20260504100204 58 135 0.0 0.9 0.00 0.00 0.00 81 1009.7
20260504081705 57 230 0.0 0.0 0.00 0.00 0.00 81 1009.6
20260504081204 57 230 0.0 0.0 0.00 0.00 0.00 80 1009.6
20260504080704 57 230 0.0 0.0 0.00 0.00 0.00 80 1009.6
20260504080204 57 230 0.0 0.0 0.00 0.00 0.00 80 1009.6
20260504070204 60 230 0.0 0.0 0.00 0.00 0.00 73 1010.1
20260504060205 59 132 0.9 2.6 0.00 0.00 0.00 74 1010.5
20260504050204 60 132 0.0 0.9 0.00 0.00 0.00 71 1011.3
20260504045704 60 132 0.0 1.7 0.00 0.00 0.00 71 1011.3
20260504045204 60 117 0.0 0.0 0.00 0.00 0.00 70 1011.3
20260504044704 60 117 0.0 0.9 0.00 0.00 0.00 70 1011.3
20260504043704 60 117 0.0 0.9 0.00 0.00 0.00 69 1011.5
20260504043204 60 117 0.0 0.9 0.00 0.00 0.00 68 1011.5
20260504041205 61 121 0.0 0.0 0.00 0.00 0.00 66 1011.7
20260504040704 61 121 0.0 0.0 0.00 0.00 0.00 65 1011.6
20260504035204 62 92 0.0 1.7 0.00 0.00 0.00 64 1011.7
20260504034705 62 86 0.0 0.9 0.00 0.00 0.00 63 1011.7
20260504034206 62 181 0.0 0.9 0.00 0.00 0.00 62 1011.8
20260504033704 63 204 0.0 4.3 0.00 0.00 0.00 62 1011.8
20260504032704 63 120 0.9 2.6 0.00 0.00 0.00 61 1011.8
20260504032204 63 80 0.0 1.7 0.00 0.00 0.00 60 1011.8
20260504031704 63 134 0.9 2.6 0.00 0.00 0.00 60 1011.9
20260504031204 63 160 0.0 2.6 0.00 0.00 0.00 60 1011.9
20260504030704 64 199 0.0 2.6 0.00 0.00 0.00 59 1011.9
20260504025704 64 99 0.9 2.6 0.00 0.00 0.00 58 1011.8
20260504025204 64 207 0.9 2.6 0.00 0.00 0.00 58 1011.9
20260504024204 64 176 0.9 1.7 0.00 0.00 0.00 57 1011.8
20260504023205 64 251 1.7 6.1 0.00 0.00 0.00 57 1011.8
20260504022704 64 190 1.7 2.6 0.00 0.00 0.00 57 1011.7
20260504021704 64 212 0.9 2.6 0.00 0.00 0.00 56 1011.6
20260504021204 64 227 1.7 4.3 0.00 0.00 0.00 56 1011.5
20260504020704 65 298 0.9 2.6 0.00 0.00 0.00 55 1011.6
20260504020204 65 291 0.9 1.7 0.00 0.00 0.00 55 1011.5
20260504015705 65 224 0.9 2.6 0.00 0.00 0.00 54 1011.6
20260504015204 65 184 1.7 2.6 0.00 0.00 0.00 54 1011.6
20260504014704 65 220 0.9 6.1 0.00 0.00 0.00 53 1011.6
20260504014205 65 33 0.9 2.6 0.00 0.00 0.00 52 1011.5
20260504013204 66 160 0.9 1.7 0.00 0.00 0.00 51 1011.5
20260504012704 66 330 0.9 2.6 0.00 0.00 0.00 51 1011.5
20260504012204 66 96 0.9 2.6 0.00 0.00 0.00 50 1011.5
20260504011204 67 213 0.9 4.3 0.00 0.00 0.00 49 1011.5
20260504010704 67 221 0.9 5.2 0.00 0.00 0.00 48 1011.4
20260504010204 67 241 2.6 7.0 0.00 0.00 0.00 48 1011.4
20260504005204 68 228 1.7 5.2 0.00 0.00 0.00 47 1011.3
20260504004204 68 175 1.7 5.2 0.00 0.00 0.00 47 1011.3
20260504003704 68 234 2.6 5.2 0.00 0.00 0.00 46 1011.3
20260504003204 69 192 2.6 7.0 0.00 0.00 0.00 46 1011.4
20260504002705 69 188 5.2 10.4 0.00 0.00 0.00 45 1011.4
20260504002204 69 190 1.7 6.1 0.00 0.00 0.00 45 1011.4
20260504001204 69 238 1.7 7.8 0.00 0.00 0.00 45 1011.6
20260504000705 69 226 3.5 12.2 0.00 0.00 0.00 44 1011.5
20260503235704 70 235 3.5 8.7 0.00 0.00 0.00 44 1011.5
20260503235204 70 240 3.5 10.4 0.00 0.00 0.00 43 1011.6
20260503234204 70 223 2.6 8.7 0.00 0.00 0.00 43 1011.7
20260503233704 70 225 4.3 11.3 0.00 0.00 0.00 41 1011.7
20260503232704 70 261 1.7 8.7 0.00 0.00 0.00 42 1011.7
20260503231705 70 205 5.2 12.2 0.00 0.00 0.00 41 1011.8
20260503231205 70 229 6.1 11.3 0.00 0.00 0.00 40 1011.8
20260503230704 70 203 4.3 7.0 0.00 0.00 0.00 40 1011.9
20260503230205 71 195 4.3 10.4 0.00 0.00 0.00 39 1012.0
20260503225704 71 199 2.6 10.4 0.00 0.00 0.00 41 1012.0
20260503225204 71 244 3.5 13.0 0.00 0.00 0.00 40 1012.1
20260503224704 71 213 2.6 11.3 0.00 0.00 0.00 40 1012.2
20260503224204 71 228 3.5 13.9 0.00 0.00 0.00 39 1012.2
20260503223704 71 217 4.3 10.4 0.00 0.00 0.00 40 1012.3
20260503222705 71 134 2.6 7.8 0.00 0.00 0.00 40 1012.4
20260503222204 71 223 4.3 7.8 0.00 0.00 0.00 39 1012.4
20260503221704 71 222 4.3 11.3 0.00 0.00 0.00 40 1012.6
20260503221204 71 223 2.6 7.0 0.00 0.00 0.00 41 1012.6
20260503220704 70 213 2.6 13.0 0.00 0.00 0.00 41 1012.8
20260503220204 71 136 3.5 8.7 0.00 0.00 0.00 40 1012.8
20260503215704 70 238 2.6 6.1 0.00 0.00 0.00 40 1012.9
20260503215204 70 332 5.2 10.4 0.00 0.00 0.00 39 1012.9
20260503214704 71 220 5.2 12.2 0.00 0.00 0.00 38 1013.0
20260503214205 71 230 2.6 8.7 0.00 0.00 0.00 40 1013.2
20260503213704 71 268 4.3 10.4 0.00 0.00 0.00 39 1013.4
20260503212704 71 230 2.6 10.4 0.00 0.00 0.00 40 1013.6
20260503212204 70 247 2.6 7.0 0.00 0.00 0.00 41 1013.6
20260503211704 70 214 3.5 10.4 0.00 0.00 0.00 40 1013.6
20260503211204 70 242 4.3 12.2 0.00 0.00 0.00 38 1013.7
20260503210704 70 231 4.3 12.2 0.00 0.00 0.00 39 1013.8
20260503210204 70 228 4.3 10.4 0.00 0.00 0.00 38 1013.8
20260503205704 70 213 5.2 11.3 0.00 0.00 0.00 39 1014.1
20260503205205 70 214 5.2 11.3 0.00 0.00 0.00 38 1014.2
20260503204704 70 215 2.6 10.4 0.00 0.00 0.00 42 1014.4
20260503204204 70 206 5.2 13.0 0.00 0.00 0.00 40 1014.6
20260503203704 70 207 4.3 8.7 0.00 0.00 0.00 40 1014.6
20260503203205 70 215 3.5 8.7 0.00 0.00 0.00 40 1014.6
20260503202704 69 262 4.3 12.2 0.00 0.00 0.00 40 1014.8
20260503201705 69 221 5.2 13.0 0.00 0.00 0.00 40 1015.1
20260503201204 69 191 2.6 10.4 0.00 0.00 0.00 42 1015.3
20260503200704 69 183 2.6 6.1 0.00 0.00 0.00 43 1015.4
20260503200204 69 122 1.7 6.1 0.00 0.00 0.00 43 1015.4
20260503195704 69 217 3.5 13.0 0.00 0.00 0.00 42 1015.6
20260503195204 69 234 4.3 7.8 0.00 0.00 0.00 43 1015.8
20260503194704 68 273 3.5 7.8 0.00 0.00 0.00 43 1015.8
20260503194205 68 217 2.6 7.8 0.00 0.00 0.00 44 1015.9
20260503193705 68 228 3.5 10.4 0.00 0.00 0.00 42 1016.2
20260503193204 68 213 2.6 10.4 0.00 0.00 0.00 44 1016.3
20260503192704 68 231 4.3 12.2 0.00 0.00 0.00 43 1016.3
20260503192204 68 47 1.7 7.0 0.00 0.00 0.00 46 1016.4
20260503191704 68 247 4.3 11.3 0.00 0.00 0.00 44 1016.5
20260503191204 68 243 5.2 14.8 0.00 0.00 0.00 42 1016.4
20260503190704 68 232 4.3 11.3 0.00 0.00 0.00 46 1016.7
20260503190204 67 168 3.5 7.0 0.00 0.00 0.00 44 1016.6
20260503185204 67 169 3.5 7.8 0.00 0.00 0.00 45 1016.9
20260503184705 67 221 3.5 7.8 0.00 0.00 0.00 43 1017.0
20260503184204 67 227 4.3 11.3 0.00 0.00 0.00 44 1017.2
20260503183704 67 179 4.3 10.4 0.00 0.00 0.00 43 1017.3
20260503183204 67 253 4.3 13.0 0.00 0.00 0.00 44 1017.5
20260503182704 66 218 3.5 12.2 0.00 0.00 0.00 46 1017.6
20260503182204 67 270 4.3 14.8 0.00 0.00 0.00 43 1017.8
20260503181705 66 268 2.6 12.2 0.00 0.00 0.00 46 1018.0
20260503181204 66 188 4.3 8.7 0.00 0.00 0.00 45 1018.0
20260503180204 65 251 3.5 7.8 0.00 0.00 0.00 45 1018.3
20260503175704 65 220 4.3 11.3 0.00 0.00 0.00 46 1018.4
20260503175204 65 139 5.2 11.3 0.00 0.00 0.00 45 1018.4
20260503174704 65 174 2.6 8.7 0.00 0.00 0.00 46 1018.6
20260503174204 65 218 4.3 11.3 0.00 0.00 0.00 47 1018.6
20260503173704 65 264 3.5 8.7 0.00 0.00 0.00 47 1018.9
20260503173204 65 211 4.3 10.4 0.00 0.00 0.00 49 1018.9
20260503172704 65 212 2.6 7.8 0.00 0.00 0.00 48 1019.0
20260503172204 64 302 3.5 7.8 0.00 0.00 0.00 49 1019.2
20260503171705 64 238 5.2 12.2 0.00 0.00 0.00 48 1019.3
20260503171204 63 182 2.6 6.1 0.00 0.00 0.00 51 1019.2
20260503170704 63 236 5.2 11.3 0.00 0.00 0.00 48 1019.3
20260503170204 63 230 4.3 11.3 0.00 0.00 0.00 49 1019.4
20260503160204 61 256 3.5 10.4 0.00 0.00 0.00 57 1020.1